sat.trackr.live / text

‹ back to catalog

STARLINK-36986

NORAD 68207 · 2026-053A

PAYLOAD ACTIVE UNKNOWN

§ Identity

Operator
Country
US
Launch date
2026-03-17
Launch site
AFWTR
Launch vehicle
Mass (kg)
RCS (m²)

Purposes: comms

External: N2YO · Heavens-Above · Gunter

§ Orbital elements

Epoch: 2026-09-18T09:10:31.520064Z

Period
93.91 min
Inclination
97.2802°
Eccentricity
0.0003459
Mean motion
15.33441851 rev/d
Perigee alt
463.2 km
Apogee alt
467.9 km
Semi-major
6,843.7 km
B*
3.8814e-4
RAAN
135.1094°
Arg perigee
85.2810°
Mean anomaly
274.8827°
Rev number
2,974

§ Raw data

STARLINK-369861 68207U 26053A   26261.38230926  .00012477  00000+0  38814-3 0  99962 68207  97.2802 135.1094 0003459  85.2810 274.8827 15.33441851 29746

JSON: /api/v1/satellites/68207 · /tle

For live sub-satellite position, see the globe view (requires WebGL).

§ Visibility from observer

Set your observer location to see the next 7 days of passes ≥ 10°. The values pass through the URL so the page stays shareable.

No JS? Fill the form by hand. The geolocation button needs JavaScript.